GW7343 Weather Reports


time (UTC)temp
C
wind
direction
speed
KPH
gust
KPH
rain 1hr
cm
rain 24hr
cm
rain mn
cm
humidity
%
barometer
mb
20260504183514 23 204 12.9 38.6 0.00 0.00 0.00 1000.6
20260504183028 23 259 14.5 38.6 0.00 0.00 0.00 1000.8
20260504182506 23 190 17.7 33.8 0.00 0.00 0.00 1000.7
20260504182010 23 144 12.9 37.0 0.00 0.00 0.00 33 1000.9
20260504181527 23 209 16.1 33.8 0.00 0.00 0.00 33 1001.0
20260504181011 23 207 12.9 33.8 0.00 0.00 0.00 33 1001.0
20260504180514 23 262 17.7 32.2 0.00 0.00 0.00 34 1001.1
20260504180027 23 253 8.0 35.4 0.00 0.00 0.00 33 1001.2
20260504175510 23 220 19.3 35.4 0.00 0.00 0.00 33 1001.3
20260504175011 23 218 19.3 35.4 0.00 0.00 0.00 33 1001.4
20260504174512 23 225 14.5 35.4 0.00 0.00 0.00 33 1001.5
20260504174007 23 223 16.1 32.2 0.00 0.00 0.00 33 1001.6
20260504173507 23 232 14.5 32.2 0.00 0.00 0.00 35 1001.6
20260504173023 23 250 14.5 29.0 0.00 0.00 0.00 36 1001.7
20260504172510 22 214 9.7 27.4 0.00 0.00 0.00 37 1001.7
20260504172014 22 207 12.9 27.4 0.00 0.00 0.00 36 1001.9
20260504171532 23 198 12.9 22.5 0.00 0.00 0.00 37 1002.0
20260504171010 22 199 9.7 30.6 0.00 0.00 0.00 36 1001.9
20260504170505 22 238 14.5 30.6 0.00 0.00 0.00 36 1002.2
20260504151010 17 197 8.0 22.5 0.00 0.00 0.00 53 1003.6
20260504150506 17 210 12.9 22.5 0.00 0.00 0.00 53 1003.6
20260504141010 15 211 14.5 22.5 0.00 0.00 0.00 56 1003.9
20260504140510 15 207 11.3 22.5 0.00 0.00 0.00 57 1003.9
20260504130513 13 258 8.0 20.9 0.00 0.00 0.00 61 1004.6
20260504110506 9 252 4.8 16.1 0.00 0.00 0.00 70 1004.6
20260504100511 9 222 8.0 16.1 0.00 0.00 0.00 68 1004.4
20260504081535 10 227 4.8 14.5 0.00 0.00 0.00 65 1005.0
20260504081008 10 248 6.4 14.5 0.00 0.00 0.00 65 1005.0
20260504080511 10 209 8.0 14.5 0.00 0.00 0.00 65 1005.1
20260504050510 11 219 9.7 17.7 0.00 0.00 0.00 57 1007.3
20260504050003 11 186 8.0 17.7 0.00 0.00 0.00 57 1007.4
20260504045503 11 246 8.0 17.7 0.00 0.00 0.00 57 1007.4
20260504045003 11 186 6.4 24.1 0.00 0.00 0.00 57 1007.5
20260504044515 11 236 9.7 24.1 0.00 0.00 0.00 57 1007.5
20260504044006 11 257 8.0 20.9 0.00 0.00 0.00 57 1007.5
20260504043507 11 200 12.9 20.9 0.00 0.00 0.00 56 1007.5
20260504043024 11 203 6.4 20.9 0.00 0.00 0.00 57 1007.6
20260504042509 11 197 11.3 24.1 0.00 0.00 0.00 57 1007.7
20260504042004 11 223 9.7 22.5 0.00 0.00 0.00 56 1007.6
20260504041508 11 230 9.7 20.9 0.00 0.00 0.00 56 1007.8
20260504041005 11 202 6.4 20.9 0.00 0.00 0.00 56 1007.8
20260504040507 11 202 11.3 22.5 0.00 0.00 0.00 56 1007.8
20260504040018 11 160 12.9 24.1 0.00 0.00 0.00 56 1007.9
20260504035513 11 198 6.4 24.1 0.00 0.00 0.00 56 1007.9
20260504035011 11 209 9.7 25.7 0.00 0.00 0.00 56 1007.9
20260504034533 12 232 9.7 25.7 0.00 0.00 0.00 55 1008.0
20260504034002 12 190 12.9 20.9 0.00 0.00 0.00 55 1008.1
20260504033502 12 200 9.7 25.7 0.00 0.00 0.00 55 1008.1
20260504033021 12 188 9.7 27.4 0.00 0.00 0.00 55 1008.1
20260504032505 12 240 11.3 27.4 0.00 0.00 0.00 55 1008.2
20260504032010 12 203 8.0 27.4 0.00 0.00 0.00 55 1008.2
20260504031528 12 208 8.0 24.1 0.00 0.00 0.00 55 1008.2
20260504031008 12 163 11.3 24.1 0.00 0.00 0.00 55 1008.2
20260504030512 12 217 9.7 24.1 0.00 0.00 0.00 55 1008.3
20260504030007 12 242 11.3 22.5 0.00 0.00 0.00 55 1008.3
20260504025503 12 219 12.9 22.5 0.00 0.00 0.00 55 1008.3
20260504025004 12 219 14.5 22.5 0.00 0.00 0.00 55 1008.4
20260504024535 12 186 11.3 20.9 0.00 0.00 0.00 55 1008.5
20260504024009 12 239 11.3 25.7 0.00 0.00 0.00 55 1008.5
20260504023507 12 219 12.9 25.7 0.00 0.00 0.00 55 1008.7
20260504023024 12 218 9.7 27.4 0.00 0.00 0.00 55 1008.5
20260504022510 12 195 9.7 27.4 0.00 0.00 0.00 55 1008.7
20260504022007 12 163 9.7 19.3 0.00 0.00 0.00 55 1008.7
20260504021510 12 223 8.0 22.5 0.00 0.00 0.00 54 1008.7
20260504021005 12 200 12.9 22.5 0.00 0.00 0.00 54 1008.6
20260504020509 12 246 8.0 22.5 0.00 0.00 0.00 53 1008.6
20260504020022 12 225 9.7 20.9 0.00 0.00 0.00 53 1008.5
20260504015509 12 211 8.0 27.4 0.00 0.00 0.00 53 1008.5
20260504015009 12 192 14.5 27.4 0.00 0.00 0.00 53 1008.6
20260504014526 12 205 8.0 17.7 0.00 0.00 0.00 53 1008.5
20260504014005 13 246 6.4 24.1 0.00 0.00 0.00 53 1008.4
20260504013506 13 271 12.9 24.1 0.00 0.00 0.00 52 1008.6
20260504013016 13 236 11.3 24.1 0.00 0.00 0.00 52 1008.5
20260504012507 13 227 14.5 29.0 0.00 0.00 0.00 51 1008.5
20260504012008 13 219 12.9 29.0 0.00 0.00 0.00 50 1008.5
20260504011525 13 212 14.5 32.2 0.00 0.00 0.00 50 1008.6
20260504011008 13 254 20.9 37.0 0.00 0.00 0.00 49 1008.5
20260504010515 13 227 20.9 37.0 0.00 0.00 0.00 48 1008.5
20260504010011 13 192 24.1 37.0 0.00 0.00 0.00 48 1008.5
20260504005506 14 252 19.3 32.2 0.00 0.00 0.00 48 1008.5
20260504005008 14 252 24.1 33.8 0.00 0.00 0.00 48 1008.5
20260504004534 15 264 12.9 35.4 0.00 0.00 0.00 47 1008.4
20260504004009 15 275 19.3 35.4 0.00 0.00 0.00 47 1008.3
20260504003513 15 251 12.9 29.0 0.00 0.00 0.00 45 1008.1
20260504003027 15 244 9.7 29.0 0.00 0.00 0.00 45 1008.0
20260504002511 15 247 11.3 29.0 0.00 0.00 0.00 44 1008.0
20260504002005 15 261 17.7 29.0 0.00 0.00 0.00 43 1007.9
20260504001514 15 243 9.7 30.6 0.00 0.00 0.00 43 1007.8
20260504001010 15 223 11.3 30.6 0.00 0.00 0.00 42 1007.8
20260504000505 15 266 11.3 30.6 0.00 0.00 0.00 42 1007.8
20260504000024 15 213 16.1 30.6 0.00 0.00 0.00 41 1007.8
20260503235509 15 254 12.9 29.0 0.00 0.00 0.00 41 1007.7
20260503235010 16 234 14.5 32.2 0.00 0.00 0.00 40 1007.7
20260503234529 16 248 19.3 32.2 0.00 0.00 0.00 40 1007.6
20260503234005 16 194 17.7 35.4 0.00 0.00 0.00 40 1007.9
20260503233505 16 243 17.7 35.4 0.00 0.00 0.00 39 1007.7
20260503233017 16 225 9.7 35.4 0.00 0.00 0.00 39 1007.7
20260503232505 16 234 12.9 35.4 0.00 0.00 0.00 39 1007.7
20260503232008 16 236 22.5 37.0 0.00 0.00 0.00 38 1007.8
20260503231526 16 256 14.5 37.0 0.00 0.00 0.00 38 1007.8
20260503231012 16 248 24.1 35.4 0.00 0.00 0.00 37 1007.7
20260503230511 16 233 20.9 37.0 0.00 0.00 0.00 38 1007.8
20260503230009 16 233 16.1 37.0 0.00 0.00 0.00 37 1007.8
20260503225505 16 223 11.3 35.4 0.00 0.00 0.00 37 1007.8
20260503225008 17 236 19.3 35.4 0.00 0.00 0.00 37 1007.9
20260503224521 17 16 11.3 24.1 0.00 0.00 0.00 37 1007.9
20260503224009 16 248 11.3 30.6 0.00 0.00 0.00 37 1008.0
20260503223510 16 246 20.9 29.0 0.00 0.00 0.00 37 1008.1
20260503223026 16 252 17.7 30.6 0.00 0.00 0.00 39 1008.1
20260503222509 16 221 11.3 40.2 0.00 0.00 0.00 38 1008.3
20260503222005 16 263 16.1 40.2 0.00 0.00 0.00 37 1008.3
20260503221513 17 240 12.9 29.0 0.00 0.00 0.00 37 1008.3
20260503221009 16 259 12.9 29.0 0.00 0.00 0.00 38 1008.3
20260503220508 16 260 17.7 35.4 0.00 0.00 0.00 37 1008.3
20260503220022 16 223 16.1 35.4 0.00 0.00 0.00 37 1008.3
20260503215512 16 267 14.5 27.4 0.00 0.00 0.00 38 1008.3
20260503215013 16 215 11.3 30.6 0.00 0.00 0.00 38 1008.3
20260503214527 16 233 14.5 40.2 0.00 0.00 0.00 37 1008.3
20260503214005 16 213 19.3 40.2 0.00 0.00 0.00 37 1008.2
20260503213509 16 265 19.3 37.0 0.00 0.00 0.00 36 1008.4
20260503213019 17 240 19.3 37.0 0.00 0.00 0.00 36 1008.3
20260503212509 17 238 20.9 32.2 0.00 0.00 0.00 36 1008.2
20260503212013 17 288 14.5 30.6 0.00 0.00 0.00 35 1008.2
20260503211536 17 257 17.7 32.2 0.00 0.00 0.00 36 1008.3
20260503211010 17 259 16.1 32.2 0.00 0.00 0.00 36 1008.3
20260503210509 17 249 11.3 29.0 0.00 0.00 0.00 37 1008.2
20260503210031 17 230 14.5 35.4 0.00 0.00 0.00 36 1008.3
20260503205509 17 259 17.7 35.4 0.00 0.00 0.00 35 1008.3
20260503205010 17 223 14.5 33.8 0.00 0.00 0.00 36 1008.3
20260503204520 17 248 12.9 33.8 0.00 0.00 0.00 36 1008.4
20260503204010 17 223 20.9 33.8 0.00 0.00 0.00 36 1008.3
20260503203510 17 184 17.7 38.6 0.00 0.00 0.00 35 1008.4
20260503203028 17 238 20.9 38.6 0.00 0.00 0.00 35 1008.5
20260503202511 17 283 19.3 33.8 0.00 0.00 0.00 33 1008.4
20260503202014 17 272 17.7 33.8 0.00 0.00 0.00 33 1008.5
20260503201516 18 231 19.3 33.8 0.00 0.00 0.00 32 1008.5
20260503201009 18 260 16.1 37.0 0.00 0.00 0.00 33 1008.5
20260503200513 18 283 14.5 37.0 0.00 0.00 0.00 33 1008.5
20260503200024 18 234 20.9 37.0 0.00 0.00 0.00 32 1008.6
20260503195512 18 274 19.3 32.2 0.00 0.00 0.00 32 1008.7
20260503195005 18 261 17.7 37.0 0.00 0.00 0.00 33 1008.8
20260503194508 18 250 20.9 37.0 0.00 0.00 0.00 32 1008.9
20260503194007 18 254 12.9 33.8 0.00 0.00 0.00 34 1008.9
20260503193510 18 250 19.3 35.4 0.00 0.00 0.00 32 1008.9
20260503193034 18 269 14.5 35.4 0.00 0.00 0.00 34 1009.0
20260503192509 18 201 17.7 35.4 0.00 0.00 0.00 31 1009.1
20260503192010 18 245 22.5 46.7 0.00 0.00 0.00 34 1009.1
20260503191526 18 253 25.7 46.7 0.00 0.00 0.00 33 1009.2
20260503191003 17 237 20.9 45.1 0.00 0.00 0.00 33 1009.4
20260503190506 17 171 22.5 43.5 0.00 0.00 0.00 32 1009.3
20260503190024 17 247 25.7 43.5 0.00 0.00 0.00 33 1009.4
20260503185507 18 281 19.3 41.8 0.00 0.00 0.00 32 1009.5
20260503185009 17 252 17.7 41.8 0.00 0.00 0.00 34 1009.7
20260503184523 17 183 16.1 37.0 0.00 0.00 0.00 34 1009.6
20260503184010 17 291 17.7 37.0 0.00 0.00 0.00 33 1009.7